N2PPN Weather Reports


time (UTC)temp
C
wind
direction
speed
KPH
gust
KPH
rain 1hr
cm
rain 24hr
cm
rain mn
cm
humidity
%
barometer
mb
20260506034507 15 202 16.1 24.1 0.00 0.00 0.00 85 1014.7
20260506034004 15 216 14.5 17.7 0.00 0.00 0.00 84 1014.6
20260506033501 15 241 12.9 14.5 0.00 0.00 0.00 84 1014.5
20260506032957 15 260 16.1 17.7 0.00 0.00 0.00 84 1014.5
20260506032455 15 215 19.3 25.7 0.00 0.00 0.00 84 1014.5
20260506031951 15 241 6.4 9.7 0.00 0.00 0.00 84 1014.6
20260506031449 15 205 9.7 14.5 0.00 0.00 0.00 84 1014.4
20260506030946 15 243 11.3 16.1 0.00 0.00 0.00 84 1014.5
20260506030444 15 220 12.9 22.5 0.00 0.00 0.00 84 1014.5
20260506025941 15 235 9.7 12.9 0.00 0.00 0.00 84 1014.6
20260506025438 15 243 6.4 11.3 0.00 0.00 0.00 84 1014.6
20260506024934 15 213 6.4 6.4 0.00 0.00 0.00 84 1014.5
20260506024431 15 192 17.7 24.1 0.00 0.00 0.00 84 1014.5
20260506023927 15 215 14.5 24.1 0.00 0.00 0.00 84 1014.8
20260506023424 15 207 11.3 12.9 0.00 0.00 0.00 84 1014.7
20260506022921 15 218 17.7 20.9 0.00 0.00 0.00 83 1014.6
20260506022419 15 238 20.9 29.0 0.00 0.00 0.00 83 1014.5
20260506021916 15 238 17.7 22.5 0.00 0.00 0.00 83 1014.6
20260506021413 15 223 14.5 16.1 0.00 0.00 0.00 82 1014.6
20260506020910 15 234 9.7 12.9 0.00 0.00 0.00 82 1014.4
20260506020408 15 264 8.0 11.3 0.00 0.00 0.00 82 1014.5
20260506015905 15 277 11.3 16.1 0.00 0.00 0.00 81 1014.7
20260506015403 15 237 14.5 24.1 0.00 0.00 0.00 81 1014.5
20260506014859 15 198 24.1 27.4 0.00 0.00 0.00 80 1014.5
20260506014356 15 194 16.1 20.9 0.00 0.00 0.00 80 1014.4
20260506013853 15 200 16.1 24.1 0.00 0.00 0.00 80 1014.6
20260506013351 15 234 17.7 27.4 0.00 0.00 0.00 80 1014.3
20260506012846 16 192 16.1 20.9 0.00 0.00 0.00 79 1014.3
20260506012343 16 218 17.7 20.9 0.00 0.00 0.00 78 1014.3
20260506011841 16 218 9.7 11.3 0.00 0.00 0.00 78 1014.1
20260506011337 16 243 11.3 14.5 0.00 0.00 0.00 78 1014.2
20260506010835 16 272 14.5 20.9 0.00 0.00 0.00 78 1014.1
20260506010333 16 224 14.5 17.7 0.00 0.00 0.00 78 1014.0
20260506005829 16 226 17.7 22.5 0.00 0.00 0.00 78 1014.0
20260506005326 16 183 12.9 17.7 0.00 0.00 0.00 76 1013.8
20260506004822 16 221 19.3 24.1 0.00 0.00 0.00 76 1013.9
20260506004320 16 222 20.9 24.1 0.00 0.00 0.00 76 1013.9
20260506003816 16 259 17.7 24.1 0.00 0.00 0.00 77 1013.9
20260506003312 16 214 17.7 27.4 0.00 0.00 0.00 77 1013.6
20260506002809 16 190 16.1 20.9 0.00 0.00 0.00 76 1013.9
20260506002306 16 214 11.3 16.1 0.00 0.00 0.00 76 1013.5
20260506001801 17 245 17.7 25.7 0.00 0.00 0.00 75 1013.6
20260506001258 17 252 11.3 16.1 0.00 0.00 0.00 75 1013.4
20260506000755 17 214 27.4 33.8 0.00 0.00 0.00 74 1013.3
20260506000254 17 264 16.1 22.5 0.00 0.00 0.00 74 1013.3
20260505235749 17 255 16.1 17.7 0.00 0.00 0.00 75 1013.2
20260505235247 17 205 20.9 24.1 0.00 0.00 0.00 75 1013.3
20260505234744 17 240 11.3 14.5 0.00 0.00 0.00 75 1013.1
20260505234241 17 235 20.9 27.4 0.00 0.00 0.00 74 1013.1
20260505233738 16 125 16.1 17.7 0.00 0.00 0.00 75 1013.0
20260505233236 16 209 17.7 22.5 0.00 0.00 0.00 75 1012.7
20260505232733 17 223 17.7 20.9 0.00 0.00 0.00 74 1012.7
20260505232230 17 230 30.6 37.0 0.00 0.00 0.00 74 1012.5
20260505231727 16 195 30.6 40.2 0.00 0.00 0.00 74 1012.5
20260505231226 16 223 16.1 20.9 0.00 0.00 0.00 75 1012.7
20260505230724 17 159 20.9 22.5 0.00 0.00 0.00 75 1012.5
20260505230220 17 206 22.5 29.0 0.00 0.00 0.00 74 1012.3
20260505225716 16 240 14.5 17.7 0.00 0.00 0.00 75 1012.4
20260505225214 16 193 19.3 22.5 0.00 0.00 0.00 75 1012.1
20260505224709 17 173 8.0 9.7 0.00 0.00 0.00 74 1012.3
20260505224207 17 271 17.7 25.7 0.00 0.00 0.00 74 1012.4
20260505223704 16 224 25.7 35.4 0.00 0.00 0.00 74 1012.2
20260505223200 17 238 16.1 20.9 0.00 0.00 0.00 75 1012.4
20260505222656 17 215 22.5 30.6 0.00 0.00 0.00 73 1012.3
20260505222152 17 171 12.9 16.1 0.00 0.00 0.00 73 1012.3
20260505221650 17 177 27.4 38.6 0.00 0.00 0.00 72 1012.2
20260505221146 17 219 20.9 27.4 0.00 0.00 0.00 71 1012.1
20260505220643 17 227 30.6 38.6 0.00 0.00 0.00 71 1012.3
20260505220141 17 260 17.7 24.1 0.00 0.00 0.00 70 1012.1
20260505215638 17 228 20.9 27.4 0.00 0.00 0.00 70 1011.9
20260505215137 17 272 20.9 30.6 0.00 0.00 0.00 71 1012.1
20260505214634 17 232 19.3 27.4 0.00 0.00 0.00 71 1012.2
20260505214131 17 193 25.7 33.8 0.00 0.00 0.00 71 1012.3
20260505213629 18 247 17.7 22.5 0.00 0.00 0.00 70 1012.1
20260505213125 18 249 9.7 12.9 0.00 0.00 0.00 70 1012.2
20260505212621 18 185 11.3 14.5 0.00 0.00 0.00 70 1011.7
20260505212119 18 206 19.3 29.0 0.00 0.00 0.00 70 1011.8
20260505211616 18 225 17.7 24.1 0.00 0.00 0.00 70 1011.8
20260505211113 18 191 3.2 4.8 0.00 0.00 0.00 71 1011.8
20260505210609 18 260 20.9 27.4 0.00 0.00 0.00 71 1011.8
20260505210106 18 196 8.0 11.3 0.00 0.00 0.00 71 1011.8
20260505205604 18 220 17.7 22.5 0.00 0.00 0.00 71 1011.8
20260505205102 17 240 17.7 27.4 0.00 0.00 0.00 72 1011.9
20260505204559 17 200 11.3 14.5 0.00 0.00 0.00 72 1011.9
20260505204056 18 231 22.5 27.4 0.00 0.00 0.00 72 1011.9
20260505203552 18 235 20.9 29.0 0.00 0.00 0.00 71 1012.1
20260505203050 18 282 16.1 17.7 0.00 0.00 0.00 71 1012.0
20260505202545 18 171 11.3 16.1 0.00 0.00 0.00 71 1011.8
20260505202041 18 215 19.3 25.7 0.00 0.00 0.00 71 1012.0
20260505201538 18 187 19.3 25.7 0.00 0.00 0.00 71 1012.0
20260505201036 17 172 20.9 24.1 0.00 0.00 0.00 72 1011.8
20260505200534 18 226 22.5 27.4 0.00 0.00 0.00 71 1012.2
20260505200031 18 233 16.1 17.7 0.00 0.00 0.00 71 1012.2
20260505195527 18 213 16.1 17.7 0.00 0.00 0.00 70 1012.4
20260505195024 18 214 9.7 12.9 0.00 0.00 0.00 70 1012.3
20260505194521 18 204 17.7 24.1 0.00 0.00 0.00 70 1012.4
20260505194016 19 232 19.3 24.1 0.00 0.00 0.00 69 1012.3
20260505193514 20 201 17.7 20.9 0.00 0.00 0.00 68 1012.4
20260505193011 20 182 9.7 12.9 0.00 0.00 0.00 68 1012.5
20260505192510 20 253 16.1 20.9 0.00 0.00 0.00 68 1012.6
20260505192007 19 190 16.1 17.7 0.00 0.00 0.00 69 1012.8
20260505191505 19 249 6.4 6.4 0.00 0.00 0.00 69 1012.8
20260505191002 19 262 6.4 11.3 0.00 0.00 0.00 69 1012.9
20260505190456 20 216 14.5 25.7 0.00 0.00 0.00 68 1013.0
20260505185953 20 184 4.8 6.4 0.00 0.00 0.00 69 1013.0
20260505185450 19 246 14.5 16.1 0.00 0.00 0.00 70 1013.6
20260505184946 19 221 9.7 11.3 0.00 0.00 0.00 69 1013.5
20260505184443 18 149 9.7 12.9 0.00 0.00 0.00 72 1013.3
20260505183940 18 212 12.9 16.1 0.00 0.00 0.00 71 1013.6
20260505183437 18 226 11.3 16.1 0.00 0.00 0.00 71 1013.6
20260505182933 18 129 8.0 12.9 0.00 0.00 0.00 73 1013.4
20260505182430 18 235 12.9 14.5 0.00 0.00 0.00 74 1013.6
20260505181926 18 184 12.9 16.1 0.00 0.00 0.00 73 1013.6
20260505181424 18 200 8.0 9.7 0.00 0.00 0.00 74 1013.8
20260505180920 18 130 16.1 24.1 0.00 0.00 0.00 73 1013.6
20260505180417 18 262 14.5 17.7 0.00 0.00 0.00 73 1013.7
20260505175914 18 167 16.1 17.7 0.00 0.00 0.00 73 1013.6
20260505175410 18 165 14.5 17.7 0.00 0.00 0.00 73 1013.8
20260505174907 18 220 11.3 20.9 0.00 0.00 0.00 74 1013.9
20260505174404 18 164 14.5 16.1 0.00 0.00 0.00 72 1014.0
20260505173900 18 164 11.3 14.5 0.00 0.00 0.00 74 1013.8
20260505173356 18 228 9.7 14.5 0.00 0.00 0.00 75 1013.8
20260505172854 18 168 12.9 14.5 0.00 0.00 0.00 75 1013.9
20260505172351 17 244 11.3 16.1 0.00 0.00 0.00 74 1014.0
20260505171850 17 174 12.9 16.1 0.00 0.00 0.00 75 1013.9
20260505171348 17 172 14.5 16.1 0.00 0.00 0.00 76 1014.2
20260505170844 17 230 16.1 22.5 0.00 0.00 0.00 76 1014.2
20260505170341 17 216 14.5 16.1 0.00 0.00 0.00 75 1014.2
20260505165836 17 190 9.7 14.5 0.00 0.00 0.00 75 1014.4
20260505165333 17 224 8.0 11.3 0.00 0.00 0.00 75 1014.1
20260505164828 18 238 19.3 24.1 0.00 0.00 0.00 74 1014.2
20260505164325 18 200 16.1 22.5 0.00 0.00 0.00 72 1014.1
20260505163823 20 191 11.3 12.9 0.00 0.00 0.00 72 1014.1
20260505163322 19 220 9.7 11.3 0.00 0.00 0.00 70 1014.2
20260505162819 20 192 3.2 9.7 0.00 0.00 0.00 71 1014.5
20260505162315 19 213 12.9 14.5 0.00 0.00 0.00 72 1014.2
20260505161813 18 215 11.3 14.5 0.00 0.00 0.00 73 1014.8
20260505161310 18 213 8.0 12.9 0.00 0.00 0.00 72 1014.5
20260505160807 19 239 9.7 11.3 0.00 0.00 0.00 72 1014.7
20260505160305 18 227 9.7 14.5 0.00 0.00 0.00 72 1014.6
20260505153244 18 141 8.0 11.3 0.00 0.00 0.00 73 1014.7
20260505152741 18 169 4.8 6.4 0.00 0.00 0.00 73 1014.8
20260505152237 18 138 11.3 12.9 0.00 0.00 0.00 75 1014.6
20260505151731 17 103 4.8 4.8 0.00 0.00 0.00 74 1014.9
20260505151229 18 215 9.7 11.3 0.00 0.00 0.00 74 1014.9
20260505150727 18 217 6.4 6.4 0.00 0.00 0.00 75 1015.1
20260505150224 17 212 8.0 9.7 0.00 0.00 0.00 75 1015.0
20260505140154 17 210 9.7 14.5 0.00 0.00 0.00 75 1014.8
20260505130117 16 202 8.0 9.7 0.00 0.00 0.00 81 1014.7
20260505124607 16 227 8.0 11.3 0.00 0.00 0.00 81 1014.6
20260505124103 16 181 6.4 6.4 0.00 0.00 0.00 82 1014.4
20260505123559 16 215 6.4 9.7 0.00 0.00 0.00 82 1014.4
20260505123056 15 230 6.4 6.4 0.00 0.00 0.00 83 1014.5
20260505122553 15 238 6.4 9.7 0.00 0.00 0.00 84 1014.5
20260505122050 15 177 4.8 4.8 0.00 0.00 0.00 86 1014.5
20260505121546 14 189 3.2 4.8 0.00 0.00 0.00 87 1014.5
20260505121043 14 143 3.2 3.2 0.00 0.00 0.00 87 1014.4
20260505120534 15 199 3.2 4.8 0.00 0.00 0.00 87 1014.5
20260505120029 14 198 3.2 3.2 0.00 0.00 0.00 88 1014.6
20260505115525 13 181 3.2 3.2 0.00 0.00 0.00 89 1014.7
20260505115023 14 186 3.2 3.2 0.00 0.00 0.00 89 1014.7
20260505114520 13 191 6.4 6.4 0.00 0.00 0.00 89 1014.6
20260505114015 13 176 3.2 3.2 0.00 0.00 0.00 90 1014.6
20260505113512 13 136 3.2 3.2 0.00 0.00 0.00 90 1014.7
20260505113008 13 180 6.4 6.4 0.00 0.00 0.00 90 1014.8
20260505112504 13 136 3.2 4.8 0.00 0.00 0.00 91 1014.6
20260505112002 13 142 3.2 4.8 0.00 0.00 0.00 91 1014.9
20260505111456 13 175 4.8 4.8 0.00 0.00 0.00 91 1014.7
20260505110953 13 96 1.6 1.6 0.00 0.00 0.00 92 1014.7
20260505110450 12 112 0.0 1.6 0.00 0.00 0.00 93 1014.8
20260505101921 11 178 3.2 3.2 0.00 0.00 0.00 96 1014.0
20260505101421 11 205 4.8 6.4 0.00 0.00 0.00 96 1014.1
20260505100916 11 179 3.2 4.8 0.00 0.00 0.00 97 1013.9
20260505100413 11 219 4.8 4.8 0.00 0.00 0.00 97 1013.6
20260505095909 11 182 4.8 6.4 0.00 0.00 0.00 97 1013.8
20260505095406 11 191 3.2 4.8 0.00 0.00 0.00 97 1013.6
20260505094903 11 184 3.2 3.2 0.00 0.00 0.00 97 1013.6
20260505094400 11 145 3.2 3.2 0.00 0.00 0.00 97 1013.5
20260505093855 11 152 1.6 3.2 0.00 0.00 0.00 97 1013.9
20260505093353 11 97 0.0 1.6 0.00 0.00 0.00 97 1013.7
20260505092850 11 104 0.0 0.0 0.00 0.00 0.00 97 1013.8
20260505092348 11 124 1.6 1.6 0.00 0.00 0.00 97 1013.6
20260505091845 11 97 0.0 0.0 0.00 0.00 0.00 96 1013.7
20260505091343 11 103 0.0 0.0 0.00 0.00 0.00 96 1013.7
20260505090841 11 184 1.6 3.2 0.00 0.00 0.00 96 1013.7
20260505090339 11 197 4.8 4.8 0.00 0.00 0.00 96 1014.0
20260505085835 11 173 4.8 4.8 0.00 0.00 0.00 96 1013.6
20260505085334 11 190 3.2 3.2 0.00 0.00 0.00 96 1013.6
20260505084831 11 219 8.0 9.7 0.00 0.00 0.00 96 1013.7
20260505084329 11 141 1.6 1.6 0.00 0.00 0.00 96 1013.8
20260505083826 11 182 6.4 9.7 0.00 0.00 0.00 96 1013.6
20260505083324 11 188 6.4 9.7 0.00 0.00 0.00 95 1013.6
20260505082820 11 214 4.8 6.4 0.00 0.00 0.00 95 1013.6
20260505082316 11 181 6.4 9.7 0.00 0.00 0.00 95 1013.7
20260505081813 11 185 6.4 11.3 0.00 0.00 0.00 95 1014.0
20260505081310 11 156 3.2 4.8 0.00 0.00 0.00 95 1013.8
20260505080806 11 190 3.2 4.8 0.00 0.00 0.00 95 1013.8
20260505080302 11 266 6.4 6.4 0.00 0.00 0.00 95 1013.9
20260505075758 11 177 6.4 6.4 0.00 0.00 0.00 95 1013.7
20260505075255 11 219 6.4 6.4 0.00 0.00 0.00 94 1013.7
20260505074752 11 172 6.4 6.4 0.00 0.00 0.00 94 1013.9
20260505074250 11 202 6.4 6.4 0.00 0.00 0.00 94 1013.5
20260505073747 11 239 6.4 6.4 0.00 0.00 0.00 94 1013.6
20260505073245 11 160 8.0 9.7 0.00 0.00 0.00 94 1013.6
20260505072741 11 201 8.0 11.3 0.00 0.00 0.00 94 1013.6
20260505072237 12 221 4.8 6.4 0.00 0.00 0.00 94 1013.6
20260505071733 11 192 6.4 6.4 0.00 0.00 0.00 94 1013.8
20260505071230 12 211 4.8 4.8 0.00 0.00 0.00 94 1013.7
20260505070728 12 187 6.4 6.4 0.00 0.00 0.00 94 1013.6
20260505070224 12 141 1.6 3.2 0.00 0.00 0.00 93 1013.5
20260505065720 12 193 4.8 6.4 0.00 0.00 0.00 93 1013.6
20260505065217 12 193 11.3 12.9 0.00 0.00 0.00 93 1013.9
20260505064714 12 175 6.4 6.4 0.00 0.00 0.00 93 1013.7
20260505064212 12 188 3.2 3.2 0.00 0.00 0.00 93 1013.9
20260505063709 12 213 6.4 6.4 0.00 0.00 0.00 93 1014.0
20260505063205 12 198 6.4 9.7 0.00 0.00 0.00 93 1013.7
20260505062701 12 229 6.4 11.3 0.00 0.00 0.00 93 1013.6
20260505062159 12 228 8.0 9.7 0.00 0.00 0.00 93 1013.8
20260505061656 12 236 8.0 11.3 0.00 0.00 0.00 93 1014.0
20260505061154 12 174 6.4 9.7 0.00 0.00 0.00 93 1014.1
20260505060651 12 198 4.8 4.8 0.00 0.00 0.00 93 1014.1
20260505060148 12 129 4.8 6.4 0.00 0.00 0.00 93 1014.2
20260505055643 12 172 9.7 11.3 0.00 0.00 0.00 93 1014.1
20260505055140 12 196 8.0 9.7 0.00 0.00 0.00 93 1014.1
20260505054637 12 209 9.7 12.9 0.00 0.00 0.00 93 1013.9
20260505054135 12 174 6.4 6.4 0.00 0.00 0.00 92 1014.3
20260505053633 12 160 4.8 4.8 0.00 0.00 0.00 92 1014.3
20260505053129 12 194 6.4 6.4 0.00 0.00 0.00 92 1014.3
20260505052626 12 201 4.8 4.8 0.00 0.00 0.00 92 1014.1
20260505052123 12 174 6.4 9.7 0.00 0.00 0.00 92 1014.3
20260505051620 12 243 8.0 11.3 0.00 0.00 0.00 92 1014.2
20260505051118 12 218 8.0 9.7 0.00 0.00 0.00 91 1014.2
20260505050616 12 152 6.4 6.4 0.00 0.00 0.00 91 1014.3
20260505050114 12 194 3.2 3.2 0.00 0.00 0.00 91 1014.2
20260505041543 12 209 6.4 9.7 0.00 0.00 0.00 88 1014.5
20260505041041 12 147 4.8 9.7 0.00 0.00 0.00 87 1014.6
20260505040538 12 89 3.2 3.2 0.00 0.00 0.00 87 1014.7
20260505040035 12 227 9.7 11.3 0.00 0.00 0.00 87 1014.4
20260505035531 12 220 9.7 11.3 0.00 0.00 0.00 87 1014.6
20260505035028 12 193 6.4 9.7 0.00 0.00 0.00 87 1014.7
20260505034524 12 218 8.0 9.7 0.00 0.00 0.00 87 1014.7